| time (UTC) | temp F | wind direction | speed MPH | gust MPH | rain 1hr in | rain 24hr in | rain mn in | humidity % | barometer mb |
| 20260510105541 | 67 | 194 | 7.0 | 12.0 | 0.00 | 0.03 | 0.00 | 92 | 938.7 |
| 20260510104519 | 67 | 205 | 9.0 | 15.0 | 0.00 | 0.03 | 0.00 | 92 | 938.6 |
| 20260510103559 | 67 | 191 | 7.0 | 12.0 | 0.00 | 0.03 | 0.00 | 92 | 938.7 |
| 20260510102537 | 67 | 204 | 8.0 | 12.0 | 0.00 | 0.03 | 0.00 | 92 | 938.9 |
| 20260510101519 | 66 | 188 | 6.0 | 10.0 | 0.00 | 0.03 | 0.00 | 92 | 938.7 |
| 20260510100559 | 67 | 201 | 5.0 | 10.0 | 0.00 | 0.03 | 0.00 | 91 | 938.9 |
| 20260510095546 | 67 | 195 | 8.0 | 15.0 | 0.00 | 0.03 | 0.00 | 91 | 938.7 |
| 20260510094525 | 67 | 187 | 7.0 | 11.0 | 0.00 | 0.03 | 0.00 | 90 | 938.8 |
| 20260510093612 | 67 | 195 | 7.0 | 12.0 | 0.00 | 0.03 | 0.00 | 89 | 938.7 |
| 20260510092559 | 68 | 193 | 6.0 | 11.0 | 0.00 | 0.03 | 0.00 | 88 | 938.7 |
| 20260510091539 | 68 | 193 | 7.0 | 9.0 | 0.00 | 0.03 | 0.00 | 88 | 938.6 |
| 20260510090527 | 68 | 195 | 6.0 | 10.0 | 0.00 | 0.03 | 0.00 | 87 | 938.6 |
| 20260510085610 | 68 | 192 | 6.0 | 12.0 | 0.00 | 0.03 | 0.00 | 87 | 938.5 |
| 20260510084552 | 68 | 191 | 7.0 | 12.0 | 0.00 | 0.03 | 0.00 | 86 | 938.4 |
| 20260510083535 | 68 | 192 | 7.0 | 12.0 | 0.00 | 0.03 | 0.00 | 86 | 938.3 |
| 20260510082540 | 68 | 190 | 8.0 | 11.0 | 0.00 | 0.03 | 0.00 | 86 | 938.4 |
| 20260510081607 | 68 | 198 | 7.0 | 8.0 | 0.00 | 0.03 | 0.00 | 86 | 938.6 |
| 20260510080549 | 68 | 188 | 6.0 | 8.0 | 0.00 | 0.03 | 0.00 | 85 | 938.5 |
| 20260510075528 | 69 | 190 | 7.0 | 9.0 | 0.00 | 0.03 | 0.00 | 83 | 938.6 |
| 20260510074607 | 69 | 195 | 7.0 | 11.0 | 0.00 | 0.03 | 0.00 | 83 | 938.5 |
| 20260510073554 | 68 | 190 | 6.0 | 9.0 | 0.00 | 0.03 | 0.00 | 84 | 938.5 |
| 20260510072540 | 68 | 184 | 6.0 | 8.0 | 0.00 | 0.03 | 0.00 | 83 | 938.6 |
| 20260510071539 | 69 | 182 | 5.0 | 7.0 | 0.00 | 0.03 | 0.00 | 83 | 938.7 |
| 20260510070602 | 69 | 183 | 3.0 | 6.0 | 0.00 | 0.03 | 0.00 | 83 | 938.6 |
| 20260510065545 | 69 | 185 | 3.0 | 5.0 | 0.00 | 0.03 | 0.00 | 81 | 938.6 |
| 20260510064531 | 70 | 180 | 3.0 | 7.0 | 0.00 | 0.03 | 0.00 | 80 | 938.8 |
| 20260510063519 | 70 | 176 | 3.0 | 5.0 | 0.00 | 0.03 | 0.00 | 80 | 938.7 |
| 20260510062607 | 71 | 186 | 3.0 | 6.0 | 0.00 | 0.03 | 0.00 | 78 | 938.8 |
| 20260510061549 | 71 | 175 | 3.0 | 8.0 | 0.00 | 0.03 | 0.00 | 78 | 938.9 |
| 20260510060549 | 70 | 164 | 5.0 | 9.0 | 0.00 | 0.03 | 0.00 | 79 | 938.8 |
| 20260510055516 | 70 | 160 | 3.0 | 7.0 | 0.00 | 0.03 | 0.00 | 78 | 938.8 |
| 20260510054604 | 70 | 174 | 2.0 | 6.0 | 0.00 | 0.03 | 0.00 | 80 | 938.7 |
| 20260510053546 | 69 | 184 | 3.0 | 5.0 | 0.00 | 0.03 | 0.00 | 79 | 938.4 |
| 20260510052524 | 70 | 181 | 3.0 | 5.0 | 0.00 | 0.03 | 0.00 | 79 | 938.6 |
| 20260510051628 | 70 | 183 | 4.0 | 6.0 | 0.00 | 0.03 | 0.00 | 78 | 938.5 |
| 20260510050554 | 70 | 178 | 4.0 | 6.0 | 0.00 | 0.03 | 0.00 | 78 | 938.5 |
| 20260510045541 | 71 | 181 | 3.0 | 5.0 | 0.00 | 0.03 | 0.03 | 77 | 938.6 |
| 20260510044528 | 71 | 194 | 3.0 | 5.0 | 0.00 | 0.03 | 0.03 | 75 | 938.6 |
| 20260510043616 | 72 | 184 | 3.0 | 6.0 | 0.00 | 0.03 | 0.03 | 75 | 938.7 |
| 20260510042621 | 73 | 167 | 3.0 | 6.0 | 0.00 | 0.03 | 0.03 | 73 | 938.6 |
| 20260510041548 | 73 | 154 | 3.0 | 7.0 | 0.00 | 0.03 | 0.03 | 73 | 938.6 |
| 20260510040555 | 73 | 155 | 3.0 | 7.0 | 0.00 | 0.03 | 0.03 | 73 | 938.3 |
| 20260510035522 | 73 | 148 | 3.0 | 7.0 | 0.00 | 0.03 | 0.03 | 73 | 938.4 |
| 20260510034559 | 73 | 136 | 4.0 | 6.0 | 0.00 | 0.03 | 0.03 | 73 | 938.3 |
| 20260510033546 | 74 | 135 | 4.0 | 11.0 | 0.00 | 0.03 | 0.03 | 73 | 938.2 |
| 20260510032525 | 74 | 137 | 3.0 | 7.0 | 0.00 | 0.03 | 0.03 | 72 | 938.2 |
| 20260510031600 | 74 | 144 | 4.0 | 6.0 | 0.00 | 0.03 | 0.03 | 71 | 938.0 |
| 20260510030625 | 75 | 139 | 4.0 | 9.0 | 0.00 | 0.03 | 0.03 | 69 | 937.9 |
| 20260510025530 | 75 | 129 | 4.0 | 9.0 | 0.00 | 0.03 | 0.03 | 69 | 937.6 |
| 20260510024613 | 75 | 133 | 3.0 | 7.0 | 0.00 | 0.03 | 0.03 | 67 | 937.5 |
| 20260510023559 | 76 | 134 | 2.0 | 6.0 | 0.00 | 0.03 | 0.03 | 64 | 937.5 |
| 20260510022604 | 78 | 133 | 4.0 | 8.0 | 0.00 | 0.03 | 0.03 | 60 | 937.5 |
| 20260510021524 | 79 | 138 | 3.0 | 9.0 | 0.00 | 0.03 | 0.03 | 52 | 937.3 |
| 20260510020612 | 80 | 87 | 0.0 | 3.0 | 0.00 | 0.03 | 0.03 | 49 | 937.2 |
| 20260510015559 | 81 | 75 | 0.0 | 2.0 | 0.00 | 0.03 | 0.03 | 46 | 937.0 |
| 20260510014546 | 82 | 330 | 1.0 | 2.0 | 0.00 | 0.03 | 0.03 | 44 | 937.0 |
| 20260510013528 | 82 | 122 | 1.0 | 2.0 | 0.00 | 0.03 | 0.03 | 44 | 936.9 |
| 20260510012604 | 82 | 156 | 0.0 | 2.0 | 0.00 | 0.03 | 0.03 | 45 | 936.8 |
| 20260510011551 | 83 | 158 | 0.0 | 3.0 | 0.00 | 0.03 | 0.03 | 44 | 936.9 |
| 20260510010538 | 84 | 0.0 | 1.0 | 0.00 | 0.03 | 0.03 | 42 | 936.9 | |
| 20260510005525 | 85 | 0.0 | 1.0 | 0.00 | 0.03 | 0.03 | 44 | 936.9 | |
| 20260510004628 | 85 | 180 | 0.0 | 2.0 | 0.00 | 0.03 | 0.03 | 43 | 936.8 |
| 20260510003552 | 86 | 33 | 1.0 | 2.0 | 0.00 | 0.03 | 0.03 | 45 | 936.9 |
| 20260510002536 | 86 | 333 | 0.0 | 2.0 | 0.00 | 0.03 | 0.03 | 44 | 936.7 |
| 20260510001542 | 86 | 188 | 3.0 | 5.0 | 0.00 | 0.03 | 0.03 | 39 | 936.8 |
| 20260510000642 | 88 | 211 | 1.0 | 2.0 | 0.00 | 0.03 | 0.03 | 38 | 936.7 |
| 20260509235549 | 91 | 165 | 1.0 | 2.0 | 0.00 | 0.03 | 0.03 | 35 | 937.0 |
| 20260509234536 | 90 | 156 | 1.0 | 2.0 | 0.00 | 0.03 | 0.03 | 34 | 936.9 |
| 20260509233524 | 89 | 271 | 2.0 | 5.0 | 0.00 | 0.03 | 0.03 | 36 | 936.8 |
| 20260509232613 | 87 | 187 | 2.0 | 5.0 | 0.00 | 0.03 | 0.03 | 39 | 936.7 |
| 20260509231554 | 86 | 229 | 4.0 | 7.0 | 0.00 | 0.03 | 0.03 | 40 | 936.6 |
| 20260509230537 | 87 | 232 | 6.0 | 10.0 | 0.00 | 0.03 | 0.03 | 38 | 936.6 |
| 20260509225520 | 86 | 211 | 3.0 | 6.0 | 0.00 | 0.03 | 0.03 | 43 | 936.8 |
| 20260509224601 | 87 | 214 | 4.0 | 9.0 | 0.00 | 0.03 | 0.03 | 42 | 936.8 |
| 20260509223548 | 86 | 203 | 5.0 | 8.0 | 0.00 | 0.03 | 0.03 | 42 | 936.8 |
| 20260509222535 | 86 | 149 | 2.0 | 6.0 | 0.00 | 0.03 | 0.03 | 43 | 936.7 |
| 20260509221522 | 86 | 201 | 4.0 | 7.0 | 0.00 | 0.03 | 0.03 | 42 | 936.8 |
| 20260509220610 | 86 | 239 | 7.0 | 14.0 | 0.00 | 0.03 | 0.03 | 44 | 936.8 |
| 20260509215552 | 85 | 222 | 2.0 | 11.0 | 0.00 | 0.03 | 0.03 | 46 | 936.7 |
| 20260509214537 | 85 | 243 | 8.0 | 13.0 | 0.00 | 0.03 | 0.03 | 46 | 936.8 |
| 20260509213520 | 85 | 205 | 5.0 | 9.0 | 0.00 | 0.03 | 0.03 | 46 | 936.8 |
| 20260509212608 | 85 | 233 | 6.0 | 15.0 | 0.00 | 0.03 | 0.03 | 48 | 937.0 |
| 20260509211555 | 85 | 288 | 8.0 | 11.0 | 0.00 | 0.03 | 0.03 | 48 | 937.0 |
| 20260509210542 | 84 | 215 | 7.0 | 13.0 | 0.00 | 0.03 | 0.03 | 48 | 937.0 |
| 20260509205528 | 84 | 265 | 12.0 | 19.0 | 0.00 | 0.03 | 0.03 | 50 | 937.3 |
| 20260509204609 | 84 | 271 | 6.0 | 11.0 | 0.00 | 0.03 | 0.03 | 51 | 937.4 |
| 20260509203544 | 83 | 274 | 6.0 | 11.0 | 0.00 | 0.03 | 0.03 | 54 | 937.4 |
| 20260509202546 | 83 | 255 | 9.0 | 14.0 | 0.00 | 0.03 | 0.03 | 52 | 937.6 |
| 20260509201609 | 83 | 218 | 9.0 | 13.0 | 0.00 | 0.03 | 0.03 | 54 | 937.7 |
| 20260509200546 | 84 | 233 | 7.0 | 13.0 | 0.00 | 0.03 | 0.03 | 51 | 937.9 |
| 20260509195529 | 83 | 247 | 6.0 | 11.0 | 0.00 | 0.03 | 0.03 | 54 | 938.0 |
| 20260509194607 | 82 | 213 | 8.0 | 17.0 | 0.00 | 0.03 | 0.03 | 56 | 938.2 |
| 20260509193555 | 82 | 279 | 4.0 | 12.0 | 0.00 | 0.03 | 0.03 | 57 | 938.3 |
| 20260509192557 | 82 | 230 | 7.0 | 15.0 | 0.00 | 0.03 | 0.03 | 58 | 938.4 |
| 20260509191616 | 81 | 268 | 8.0 | 14.0 | 0.00 | 0.03 | 0.03 | 59 | 938.4 |
| 20260509190558 | 80 | 239 | 6.0 | 14.0 | 0.00 | 0.03 | 0.03 | 59 | 938.4 |
| 20260509184523 | 80 | 221 | 11.0 | 18.0 | 0.00 | 0.03 | 0.03 | 62 | 938.6 |
| 20260509183611 | 80 | 239 | 12.0 | 24.0 | 0.00 | 0.03 | 0.03 | 63 | 938.5 |
| 20260509182606 | 80 | 256 | 11.0 | 16.0 | 0.00 | 0.03 | 0.03 | 64 | 938.7 |
| 20260509181526 | 79 | 207 | 11.0 | 16.0 | 0.00 | 0.03 | 0.03 | 66 | 938.8 |
| 20260509180605 | 78 | 221 | 10.0 | 14.0 | 0.00 | 0.03 | 0.03 | 68 | 938.8 |
| 20260509175547 | 78 | 206 | 6.0 | 15.0 | 0.00 | 0.03 | 0.03 | 69 | 938.9 |
| 20260509174534 | 78 | 211 | 8.0 | 13.0 | 0.00 | 0.03 | 0.03 | 68 | 939.1 |
| 20260509173520 | 78 | 220 | 5.0 | 10.0 | 0.00 | 0.03 | 0.03 | 73 | 939.3 |
| 20260509172617 | 77 | 226 | 7.0 | 13.0 | 0.00 | 0.03 | 0.03 | 71 | 939.1 |
| 20260509171544 | 76 | 196 | 7.0 | 15.0 | 0.00 | 0.03 | 0.03 | 73 | 939.1 |
| 20260509170529 | 77 | 200 | 9.0 | 13.0 | 0.00 | 0.03 | 0.03 | 75 | 939.2 |
| 20260509165613 | 76 | 186 | 8.0 | 14.0 | 0.00 | 0.03 | 0.03 | 76 | 939.0 |
| 20260509164600 | 76 | 178 | 8.0 | 14.0 | 0.00 | 0.03 | 0.03 | 77 | 939.2 |
| 20260509163538 | 76 | 174 | 8.0 | 12.0 | 0.00 | 0.03 | 0.03 | 78 | 939.1 |
| 20260509162521 | 74 | 178 | 7.0 | 14.0 | 0.00 | 0.03 | 0.03 | 81 | 939.1 |
| 20260509161629 | 75 | 186 | 10.0 | 18.0 | 0.00 | 0.03 | 0.03 | 82 | 939.3 |
| 20260509160554 | 74 | 163 | 8.0 | 13.0 | 0.00 | 0.03 | 0.03 | 83 | 939.0 |
| 20260509155602 | 73 | 176 | 8.0 | 13.0 | 0.00 | 0.03 | 0.03 | 85 | 938.8 |
| 20260509154528 | 72 | 197 | 9.0 | 16.0 | 0.01 | 0.03 | 0.03 | 89 | 938.8 |
| 20260509153637 | 69 | 209 | 9.0 | 14.0 | 0.01 | 0.03 | 0.03 | 98 | 938.6 |
| 20260509152601 | 69 | 203 | 10.0 | 14.0 | 0.01 | 0.03 | 0.03 | 99 | 938.5 |
| 20260509151609 | 69 | 225 | 9.0 | 17.0 | 0.01 | 0.03 | 0.03 | 99 | 938.4 |
| 20260509150526 | 68 | 209 | 5.0 | 9.0 | 0.01 | 0.03 | 0.03 | 99 | 938.4 |
| 20260509145617 | 67 | 237 | 6.0 | 12.0 | 0.01 | 0.03 | 0.03 | 99 | 938.3 |
| 20260509144613 | 67 | 191 | 11.0 | 19.0 | 0.01 | 0.02 | 0.02 | 99 | 937.6 |
| 20260509143532 | 67 | 194 | 11.0 | 18.0 | 0.01 | 0.02 | 0.02 | 99 | 937.5 |
| 20260509142520 | 67 | 199 | 13.0 | 18.0 | 0.01 | 0.02 | 0.02 | 99 | 937.3 |
| 20260509141600 | 67 | 205 | 13.0 | 20.0 | 0.01 | 0.02 | 0.02 | 99 | 937.5 |
| 20260509140547 | 67 | 191 | 11.0 | 17.0 | 0.00 | 0.02 | 0.02 | 99 | 937.6 |
| 20260509135534 | 66 | 209 | 5.0 | 13.0 | 0.00 | 0.02 | 0.02 | 99 | 937.7 |
| 20260509134615 | 66 | 204 | 10.0 | 16.0 | 0.00 | 0.01 | 0.01 | 99 | 937.6 |
| 20260509133605 | 66 | 216 | 7.0 | 13.0 | 0.00 | 0.01 | 0.01 | 99 | 937.8 |
| 20260509132552 | 66 | 205 | 6.0 | 12.0 | 0.00 | 0.01 | 0.01 | 99 | 937.9 |
| 20260509131537 | 66 | 174 | 7.0 | 17.0 | 0.00 | 0.01 | 0.01 | 99 | 938.1 |
| 20260509130520 | 66 | 178 | 3.0 | 8.0 | 0.00 | 0.01 | 0.01 | 99 | 938.6 |
| 20260509125629 | 66 | 226 | 3.0 | 5.0 | 0.01 | 0.01 | 0.01 | 99 | 938.5 |
| 20260509124547 | 66 | 332 | 3.0 | 6.0 | 0.00 | 0.01 | 0.01 | 99 | 938.3 |
| 20260509123534 | 66 | 356 | 4.0 | 8.0 | 0.01 | 0.01 | 0.01 | 99 | 938.0 |
| 20260509122611 | 66 | 98 | 4.0 | 6.0 | 0.01 | 0.01 | 0.01 | 99 | 937.8 |
| 20260509121558 | 66 | 89 | 3.0 | 6.0 | 0.01 | 0.01 | 0.01 | 99 | 938.0 |
| 20260509120544 | 66 | 15 | 6.0 | 11.0 | 0.01 | 0.01 | 0.01 | 99 | 938.5 |
| 20260509115531 | 66 | 15 | 4.0 | 12.0 | 0.00 | 0.00 | 0.00 | 99 | 938.6 |
| 20260509114518 | 66 | 356 | 3.0 | 7.0 | 0.00 | 0.00 | 0.00 | 99 | 938.5 |
| 20260509113606 | 66 | 340 | 3.0 | 8.0 | 0.00 | 0.00 | 0.00 | 99 | 938.6 |
| 20260509112551 | 66 | 17 | 3.0 | 11.0 | 0.00 | 0.00 | 0.00 | 99 | 938.6 |
| 20260509111538 | 66 | 7 | 3.0 | 10.0 | 0.00 | 0.00 | 0.00 | 99 | 938.8 |
| 20260509110520 | 66 | 30 | 5.0 | 11.0 | 0.00 | 0.00 | 0.00 | 99 | 939.1 |